Time,TemperatureF,DewpointF,PressureIn,WindDirection,WindDirectionDegrees,WindSpeedMPH,WindSpeedGustMPH,Humidity,HourlyPrecipIn,Conditions,Clouds,dailyrainin,SolarRadiationWatts/m^2,SoftwareType,DateUTC
2013-05-06 00:06:00,52.1,39.9,30.02,NNE,25,0.0,0.0,63,0.00,,,0.00,0,Wunderground v.1.15,2013-05-06 05:06:00,
2013-05-06 00:11:00,52.0,39.8,30.02,NNE,23,0.0,0.0,63,0.00,,,0.00,0,Wunderground v.1.15,2013-05-06 05:11:00,
2013-05-06 00:21:00,52.0,39.8,30.02,NNE,24,0.0,0.0,63,0.00,,,0.00,0,Wunderground v.1.15,2013-05-06 05:21:00,
2013-05-06 00:26:00,52.0,39.4,30.02,NNE,25,0.0,0.0,62,0.00,,,0.00,0,Wunderground v.1.15,2013-05-06 05:26:00,
2013-05-06 00:31:00,52.0,39.4,30.02,NNE,25,1.0,1.0,62,0.00,,,0.00,0,Wunderground v.1.15,2013-05-06 05:31:00,
2013-05-06 00:41:00,51.9,40.1,30.01,NNE,23,0.0,0.0,64,0.00,,,0.00,0,Wunderground v.1.15,2013-05-06 05:41:00,
2013-05-06 00:46:00,51.8,39.6,30.01,NNE,23,0.0,2.0,63,0.00,,,0.00,0,Wunderground v.1.15,2013-05-06 05:46:00,
2013-05-06 00:51:00,51.7,39.5,30.01,NNE,24,1.0,1.0,63,0.00,,,0.00,0,Wunderground v.1.15,2013-05-06 05:51:00,
2013-05-06 01:01:00,51.6,39.4,30.00,North,354,0.0,2.0,63,0.00,,,0.00,0,Wunderground v.1.15,2013-05-06 06:01:00,
2013-05-06 01:06:00,51.6,39.8,30.00,NNW,343,2.0,2.0,64,0.00,,,0.00,0,Wunderground v.1.15,2013-05-06 06:06:00,
2013-05-06 01:11:00,51.6,39.4,30.00,North,354,3.0,3.0,63,0.00,,,0.00,0,Wunderground v.1.15,2013-05-06 06:11:00,
2013-05-06 01:21:00,51.6,39.0,30.00,North,359,2.0,5.0,62,0.00,,,0.00,0,Wunderground v.1.15,2013-05-06 06:21:00,
2013-05-06 01:26:00,51.7,39.5,30.00,NNW,336,3.0,5.0,63,0.00,,,0.00,0,Wunderground v.1.15,2013-05-06 06:26:00,
2013-05-06 01:36:00,51.8,39.2,30.00,North,359,2.0,3.0,62,0.00,,,0.00,0,Wunderground v.1.15,2013-05-06 06:36:00,
2013-05-06 01:41:00,51.8,38.8,30.00,NNE,21,0.0,3.0,61,0.00,,,0.00,0,Wunderground v.1.15,2013-05-06 06:41:00,
2013-05-06 01:46:00,51.7,38.7,29.99,NNE,17,2.0,3.0,61,0.00,,,0.00,0,Wunderground v.1.15,2013-05-06 06:46:00,
2013-05-06 01:56:00,51.7,38.7,30.00,NNE,16,0.0,2.0,61,0.00,,,0.00,0,Wunderground v.1.15,2013-05-06 06:56:00,
2013-05-06 02:01:00,51.6,38.6,30.00,NNE,14,0.0,0.0,61,0.00,,,0.00,0,Wunderground v.1.15,2013-05-06 07:01:00,
2013-05-06 02:11:00,51.5,38.5,29.99,NNE,12,2.0,3.0,61,0.00,,,0.00,0,Wunderground v.1.15,2013-05-06 07:11:00,
2013-05-06 02:16:00,51.5,38.5,29.99,North,359,3.0,3.0,61,0.00,,,0.00,0,Wunderground v.1.15,2013-05-06 07:16:00,
2013-05-06 02:26:00,51.5,38.5,29.99,North,359,2.0,3.0,61,0.00,,,0.00,0,Wunderground v.1.15,2013-05-06 07:26:00,
2013-05-06 02:31:00,51.5,38.5,29.99,North,354,1.0,1.0,61,0.00,,,0.00,0,Wunderground v.1.15,2013-05-06 07:31:00,
2013-05-06 02:36:00,51.5,38.5,29.99,North,4,2.0,3.0,61,0.00,,,0.00,0,Wunderground v.1.15,2013-05-06 07:36:00,
2013-05-06 02:41:00,51.5,38.5,29.98,North,4,3.0,5.0,61,0.00,,,0.00,0,Wunderground v.1.15,2013-05-06 07:41:00,
2013-05-06 02:51:00,51.5,38.5,29.98,North,8,5.0,5.0,61,0.00,,,0.00,0,Wunderground v.1.15,2013-05-06 07:51:00,
2013-05-06 03:01:00,51.5,38.9,29.98,NNE,29,4.0,4.0,62,0.00,,,0.00,0,Wunderground v.1.15,2013-05-06 08:01:00,
2013-05-06 03:06:00,51.4,38.8,29.98,North,8,3.0,4.0,62,0.00,,,0.00,0,Wunderground v.1.15,2013-05-06 08:06:00,
2013-05-06 03:16:00,51.3,39.1,29.98,North,11,3.0,4.0,63,0.00,,,0.00,0,Wunderground v.1.15,2013-05-06 08:16:00,
2013-05-06 03:21:00,51.3,39.1,29.98,NNE,13,3.0,3.0,63,0.00,,,0.00,0,Wunderground v.1.15,2013-05-06 08:21:00,
2013-05-06 03:31:00,51.2,39.0,29.97,NE,41,5.0,6.0,63,0.00,,,0.00,0,Wunderground v.1.15,2013-05-06 08:31:00,
2013-05-06 03:36:00,51.2,39.0,29.97,ENE,66,5.0,6.0,63,0.00,,,0.00,0,Wunderground v.1.15,2013-05-06 08:36:00,
2013-05-06 03:41:00,51.2,39.0,29.98,NE,43,4.0,4.0,63,0.00,,,0.00,0,Wunderground v.1.15,2013-05-06 08:41:00,
2013-05-06 03:51:00,51.2,39.0,29.98,NNE,25,3.0,3.0,63,0.00,,,0.00,0,Wunderground v.1.15,2013-05-06 08:51:00,
2013-05-06 03:56:00,51.2,39.4,29.98,NNE,26,2.0,3.0,64,0.00,,,0.00,0,Wunderground v.1.15,2013-05-06 08:56:00,
2013-05-06 04:01:00,51.2,39.4,29.98,NNE,31,0.0,1.0,64,0.00,,,0.00,0,Wunderground v.1.15,2013-05-06 09:01:00,
2013-05-06 04:06:00,51.2,39.4,29.98,NE,56,0.0,3.0,64,0.00,,,0.00,0,Wunderground v.1.15,2013-05-06 09:06:00,
2013-05-06 04:16:00,51.1,39.3,29.98,NE,50,2.0,2.0,64,0.00,,,0.00,0,Wunderground v.1.15,2013-05-06 09:16:00,
2013-05-06 04:26:00,51.0,39.2,29.98,NE,37,1.0,2.0,64,0.00,,,0.00,0,Wunderground v.1.15,2013-05-06 09:26:00,
2013-05-06 04:31:00,51.0,39.2,29.98,NNE,29,0.0,0.0,64,0.00,,,0.00,0,Wunderground v.1.15,2013-05-06 09:31:00,
2013-05-06 04:41:00,51.1,39.3,29.98,NNE,18,2.0,2.0,64,0.00,,,0.00,0,Wunderground v.1.15,2013-05-06 09:41:00,
2013-05-06 04:46:00,51.1,39.3,29.98,NNE,24,2.0,5.0,64,0.00,,,0.00,0,Wunderground v.1.15,2013-05-06 09:46:00,
2013-05-06 04:51:00,51.2,39.4,29.98,NNE,18,3.0,4.0,64,0.00,,,0.00,0,Wunderground v.1.15,2013-05-06 09:51:00,
2013-05-06 05:01:00,51.2,39.4,29.98,North,11,3.0,5.0,64,0.00,,,0.00,0,Wunderground v.1.15,2013-05-06 10:01:00,
2013-05-06 05:06:00,51.2,39.4,29.98,North,8,4.0,5.0,64,0.00,,,0.00,0,Wunderground v.1.15,2013-05-06 10:06:00,
2013-05-06 05:16:00,51.2,39.4,29.98,NNE,26,4.0,7.0,64,0.00,,,0.00,0,Wunderground v.1.15,2013-05-06 10:16:00,
2013-05-06 05:21:00,51.1,39.3,29.99,North,4,4.0,5.0,64,0.00,,,0.00,0,Wunderground v.1.15,2013-05-06 10:21:00,
2013-05-06 05:31:00,51.0,39.6,29.99,NNE,23,2.0,2.0,65,0.00,,,0.00,0,Wunderground v.1.15,2013-05-06 10:31:00,
2013-05-06 05:36:00,51.0,39.6,29.99,NE,41,0.0,2.0,65,0.00,,,0.00,0,Wunderground v.1.15,2013-05-06 10:36:00,
2013-05-06 05:41:00,50.9,39.5,29.99,NNE,33,1.0,1.0,65,0.00,,,0.00,0,Wunderground v.1.15,2013-05-06 10:41:00,
2013-05-06 05:51:00,50.9,39.9,29.99,NNE,28,2.0,2.0,66,0.00,,,0.00,0,Wunderground v.1.15,2013-05-06 10:51:00,
2013-05-06 05:56:00,50.9,39.9,29.99,NNE,29,2.0,3.0,66,0.00,,,0.00,5,Wunderground v.1.15,2013-05-06 10:56:00,
2013-05-06 06:01:00,50.9,39.9,30.00,NNE,29,2.0,2.0,66,0.00,,,0.00,7,Wunderground v.1.15,2013-05-06 11:01:00,
2013-05-06 06:11:00,51.0,40.4,30.00,NE,36,3.0,4.0,67,0.00,,,0.00,12,Wunderground v.1.15,2013-05-06 11:11:00,
2013-05-06 06:21:00,50.9,40.3,30.01,NNE,28,2.0,2.0,67,0.00,,,0.00,19,Wunderground v.1.15,2013-05-06 11:21:00,
2013-05-06 06:26:00,51.0,40.4,30.01,NNE,29,1.0,2.0,67,0.00,,,0.00,25,Wunderground v.1.15,2013-05-06 11:26:00,
2013-05-06 06:36:00,51.2,40.6,30.01,NNE,29,0.0,0.0,67,0.00,,,0.00,32,Wunderground v.1.15,2013-05-06 11:36:00,
2013-05-06 06:41:00,51.2,40.6,30.01,NNE,31,0.0,3.0,67,0.00,,,0.00,35,Wunderground v.1.15,2013-05-06 11:41:00,
2013-05-06 06:51:00,51.5,40.9,30.01,NNE,30,2.0,2.0,67,0.00,,,0.00,40,Wunderground v.1.15,2013-05-06 11:51:00,
2013-05-06 06:56:00,51.6,40.6,30.01,NNE,23,1.0,2.0,66,0.00,,,0.00,42,Wunderground v.1.15,2013-05-06 11:56:00,
2013-05-06 07:01:00,51.7,40.7,30.02,NNE,25,2.0,2.0,66,0.00,,,0.00,40,Wunderground v.1.15,2013-05-06 12:01:00,
2013-05-06 07:11:00,51.8,41.2,30.02,NNE,24,1.0,1.0,67,0.00,,,0.00,42,Wunderground v.1.15,2013-05-06 12:11:00,
2013-05-06 07:16:00,51.8,40.8,30.02,NE,36,2.0,2.0,66,0.00,,,0.00,46,Wunderground v.1.15,2013-05-06 12:16:00,
2013-05-06 07:26:00,52.0,40.6,30.02,NE,37,3.0,4.0,65,0.00,,,0.00,54,Wunderground v.1.15,2013-05-06 12:26:00,
2013-05-06 07:31:00,52.1,40.3,30.02,NNE,33,3.0,6.0,64,0.00,,,0.00,60,Wunderground v.1.15,2013-05-06 12:31:00,
2013-05-06 07:36:00,52.2,40.0,30.02,NNE,23,4.0,7.0,63,0.00,,,0.00,65,Wunderground v.1.15,2013-05-06 12:36:00,
2013-05-06 07:46:00,52.4,39.8,30.02,NE,46,4.0,5.0,62,0.00,,,0.00,90,Wunderground v.1.15,2013-05-06 12:46:00,
2013-05-06 07:51:00,52.6,39.9,30.02,NNE,26,4.0,4.0,62,0.00,,,0.00,100,Wunderground v.1.15,2013-05-06 12:51:00,
2013-05-06 08:01:00,53.1,39.6,30.02,NNE,26,4.0,4.0,60,0.00,,,0.00,128,Wunderground v.1.15,2013-05-06 13:01:00,
2013-05-06 08:06:00,53.3,39.3,30.02,NNE,30,5.0,6.0,59,0.00,,,0.00,148,Wunderground v.1.15,2013-05-06 13:06:00,
2013-05-06 08:16:00,53.9,39.5,30.02,North,10,4.0,5.0,58,0.00,,,0.00,165,Wunderground v.1.15,2013-05-06 13:16:00,
2013-05-06 08:26:00,54.3,39.4,30.02,NE,54,4.0,5.0,57,0.00,,,0.00,202,Wunderground v.1.15,2013-05-06 13:26:00,
2013-05-06 08:31:00,54.6,39.2,30.02,NE,41,4.0,9.0,56,0.00,,,0.00,211,Wunderground v.1.15,2013-05-06 13:31:00,
2013-05-06 08:41:00,55.0,39.1,30.02,NE,52,6.0,6.0,55,0.00,,,0.00,200,Wunderground v.1.15,2013-05-06 13:41:00,
2013-05-06 08:46:00,55.3,39.4,30.02,NE,50,5.0,8.0,55,0.00,,,0.00,207,Wunderground v.1.15,2013-05-06 13:46:00,
2013-05-06 08:56:00,55.9,39.0,30.03,ENE,62,5.0,5.0,53,0.00,,,0.00,202,Wunderground v.1.15,2013-05-06 13:56:00,
2013-05-06 09:01:00,56.2,38.3,30.03,East,86,4.0,5.0,51,0.00,,,0.00,213,Wunderground v.1.15,2013-05-06 14:01:00,
2013-05-06 09:06:00,56.3,38.4,30.03,North,359,5.0,8.0,51,0.00,,,0.00,225,Wunderground v.1.15,2013-05-06 14:06:00,
2013-05-06 09:16:00,56.3,38.4,30.03,NE,52,6.0,6.0,51,0.00,,,0.00,264,Wunderground v.1.15,2013-05-06 14:16:00,
2013-05-06 09:26:00,56.9,38.9,30.03,ENE,77,3.0,4.0,51,0.00,,,0.00,353,Wunderground v.1.15,2013-05-06 14:26:00,
2013-05-06 09:31:00,57.2,38.7,30.03,ENE,60,3.0,4.0,50,0.00,,,0.00,390,Wunderground v.1.15,2013-05-06 14:31:00,
2013-05-06 09:41:00,57.3,38.8,30.03,NE,56,5.0,7.0,50,0.00,,,0.00,399,Wunderground v.1.15,2013-05-06 14:41:00,
2013-05-06 09:46:00,57.5,39.5,30.03,ENE,77,4.0,7.0,51,0.00,,,0.00,396,Wunderground v.1.15,2013-05-06 14:46:00,
2013-05-06 09:51:00,57.8,39.3,30.03,NE,55,4.0,4.0,50,0.00,,,0.00,427,Wunderground v.1.15,2013-05-06 14:51:00,
2013-05-06 10:01:00,58.7,39.6,30.03,NE,47,4.0,4.0,49,0.00,,,0.00,599,Wunderground v.1.15,2013-05-06 15:01:00,
2013-05-06 10:06:00,59.1,39.4,30.03,NE,43,4.0,4.0,48,0.00,,,0.00,610,Wunderground v.1.15,2013-05-06 15:06:00,
2013-05-06 10:16:00,59.4,40.2,30.03,East,83,5.0,6.0,49,0.00,,,0.00,492,Wunderground v.1.15,2013-05-06 15:16:00,
2013-05-06 10:21:00,59.9,40.7,30.03,NE,44,3.0,3.0,49,0.00,,,0.00,466,Wunderground v.1.15,2013-05-06 15:21:00,
2013-05-06 10:26:00,60.5,40.2,30.03,East,81,3.0,3.0,47,0.00,,,0.00,503,Wunderground v.1.15,2013-05-06 15:26:00,
2013-05-06 10:36:00,60.6,40.8,30.03,NNE,12,4.0,4.0,48,0.00,,,0.00,598,Wunderground v.1.15,2013-05-06 15:36:00,
2013-05-06 10:41:00,61.1,40.7,30.03,ENE,60,4.0,8.0,47,0.00,,,0.00,664,Wunderground v.1.15,2013-05-06 15:41:00,
2013-05-06 10:51:00,61.2,40.2,30.03,NE,55,5.0,5.0,46,0.00,,,0.00,731,Wunderground v.1.15,2013-05-06 15:51:00,
2013-05-06 10:56:00,61.5,40.5,30.03,NE,52,4.0,6.0,46,0.00,,,0.00,766,Wunderground v.1.15,2013-05-06 15:56:00,
2013-05-06 11:01:00,62.0,40.4,30.02,NE,37,5.0,6.0,45,0.00,,,0.00,821,Wunderground v.1.15,2013-05-06 16:01:00,
2013-05-06 11:11:00,62.5,40.3,30.02,ENE,68,6.0,6.0,44,0.00,,,0.00,798,Wunderground v.1.15,2013-05-06 16:11:00,
2013-05-06 11:21:00,63.1,40.8,30.02,NNE,31,5.0,7.0,44,0.00,,,0.00,821,Wunderground v.1.15,2013-05-06 16:21:00,
2013-05-06 11:26:00,63.2,40.9,30.02,NE,45,6.0,7.0,44,0.00,,,0.00,773,Wunderground v.1.15,2013-05-06 16:26:00,
2013-05-06 11:36:00,63.4,41.1,30.02,NE,50,7.0,9.0,44,0.00,,,0.00,816,Wunderground v.1.15,2013-05-06 16:36:00,
2013-05-06 11:41:00,63.4,41.1,30.01,NNE,33,7.0,7.0,44,0.00,,,0.00,849,Wunderground v.1.15,2013-05-06 16:41:00,
2013-05-06 11:51:00,63.9,41.0,30.01,NE,53,7.0,10.0,43,0.00,,,0.00,840,Wunderground v.1.15,2013-05-06 16:51:00,
2013-05-06 11:56:00,63.7,40.8,30.01,NNE,33,8.0,10.0,43,0.00,,,0.00,886,Wunderground v.1.15,2013-05-06 16:56:00,
2013-05-06 12:01:00,64.3,40.7,30.01,NNE,16,8.0,9.0,42,0.00,,,0.00,828,Wunderground v.1.15,2013-05-06 17:01:00,
2013-05-06 12:11:00,64.8,39.9,30.01,ENE,73,7.0,11.0,40,0.00,,,0.00,856,Wunderground v.1.15,2013-05-06 17:11:00,
2013-05-06 12:21:00,65.1,40.8,30.00,NNE,27,7.0,7.0,41,0.00,,,0.00,847,Wunderground v.1.15,2013-05-06 17:21:00,
2013-05-06 12:26:00,65.2,40.3,30.00,NE,51,7.0,9.0,40,0.00,,,0.00,868,Wunderground v.1.15,2013-05-06 17:26:00,
2013-05-06 12:31:00,65.5,41.2,30.00,NE,55,6.0,6.0,41,0.00,,,0.00,888,Wunderground v.1.15,2013-05-06 17:31:00,
2013-05-06 12:41:00,66.1,40.4,30.00,East,79,6.0,6.0,39,0.00,,,0.00,923,Wunderground v.1.15,2013-05-06 17:41:00,
2013-05-06 12:51:00,65.7,40.1,30.00,ENE,71,7.0,7.0,39,0.00,,,0.00,807,Wunderground v.1.15,2013-05-06 17:51:00,
2013-05-06 12:56:00,64.7,39.2,30.00,ENE,63,9.0,9.0,39,0.00,,,0.00,816,Wunderground v.1.15,2013-05-06 17:56:00,
2013-05-06 13:01:00,64.2,40.0,30.00,North,359,9.0,9.0,41,0.00,,,0.00,870,Wunderground v.1.15,2013-05-06 18:01:00,
2013-05-06 13:11:00,64.4,40.2,30.00,NE,48,7.0,9.0,41,0.00,,,0.00,902,Wunderground v.1.15,2013-05-06 18:11:00,
2013-05-06 13:21:00,64.2,40.6,30.00,ENE,59,7.0,8.0,42,0.00,,,0.00,886,Wunderground v.1.15,2013-05-06 18:21:00,
2013-05-06 13:26:00,64.5,40.3,30.00,ENE,60,7.0,8.0,41,0.00,,,0.00,877,Wunderground v.1.15,2013-05-06 18:26:00,
2013-05-06 13:31:00,64.7,40.4,30.00,NNE,33,7.0,12.0,41,0.00,,,0.00,912,Wunderground v.1.15,2013-05-06 18:31:00,
2013-05-06 13:36:00,64.9,40.6,30.00,NE,49,7.0,12.0,41,0.00,,,0.00,844,Wunderground v.1.15,2013-05-06 18:36:00,
2013-05-06 13:46:00,64.5,39.6,30.00,ENE,60,7.0,10.0,40,0.00,,,0.00,722,Wunderground v.1.15,2013-05-06 18:46:00,
2013-05-06 13:51:00,64.2,40.0,30.00,ENE,57,7.0,7.0,41,0.00,,,0.00,805,Wunderground v.1.15,2013-05-06 18:51:00,
2013-05-06 14:01:00,63.6,39.5,30.00,NNE,29,8.0,8.0,41,0.00,,,0.00,663,Wunderground v.1.15,2013-05-06 19:01:00,
2013-05-06 14:06:00,63.4,39.3,30.00,NE,54,8.0,8.0,41,0.00,,,0.00,573,Wunderground v.1.15,2013-05-06 19:06:00,
2013-05-06 14:16:00,63.5,40.0,30.00,NE,44,6.0,7.0,42,0.00,,,0.00,659,Wunderground v.1.15,2013-05-06 19:16:00,
2013-05-06 14:26:00,64.1,39.9,30.00,NE,50,5.0,7.0,41,0.00,,,0.00,643,Wunderground v.1.15,2013-05-06 19:26:00,
2013-05-06 14:31:00,64.1,39.9,30.00,ENE,69,6.0,8.0,41,0.00,,,0.00,680,Wunderground v.1.15,2013-05-06 19:31:00,
2013-05-06 14:36:00,64.0,39.8,30.00,NE,51,7.0,8.0,41,0.00,,,0.00,647,Wunderground v.1.15,2013-05-06 19:36:00,
2013-05-06 14:46:00,64.0,39.2,29.99,ENE,62,5.0,9.0,40,0.00,,,0.00,617,Wunderground v.1.15,2013-05-06 19:46:00,
2013-05-06 14:51:00,64.0,39.2,30.00,ENE,60,6.0,8.0,40,0.00,,,0.00,636,Wunderground v.1.15,2013-05-06 19:51:00,
2013-05-06 15:01:00,64.1,39.3,29.99,ENE,62,6.0,6.0,40,0.00,,,0.00,570,Wunderground v.1.15,2013-05-06 20:01:00,
2013-05-06 15:06:00,64.2,39.4,29.99,NNE,22,6.0,11.0,40,0.00,,,0.00,547,Wunderground v.1.15,2013-05-06 20:06:00,
2013-05-06 15:16:00,64.1,38.0,29.99,NNE,18,7.0,7.0,38,0.00,,,0.00,480,Wunderground v.1.15,2013-05-06 20:16:00,
2013-05-06 15:21:00,63.8,38.4,29.99,ENE,70,7.0,10.0,39,0.00,,,0.00,494,Wunderground v.1.15,2013-05-06 20:21:00,
2013-05-06 15:31:00,63.9,38.4,29.99,ENE,58,6.0,11.0,39,0.00,,,0.00,545,Wunderground v.1.15,2013-05-06 20:31:00,
2013-05-06 15:36:00,64.1,38.6,29.99,ENE,63,5.0,11.0,39,0.00,,,0.00,527,Wunderground v.1.15,2013-05-06 20:36:00,
2013-05-06 15:46:00,63.9,38.4,29.98,ENE,70,5.0,9.0,39,0.00,,,0.00,476,Wunderground v.1.15,2013-05-06 20:46:00,
2013-05-06 15:51:00,64.0,38.5,29.98,ENE,65,5.0,7.0,39,0.00,,,0.00,461,Wunderground v.1.15,2013-05-06 20:51:00,
2013-05-06 15:56:00,63.6,38.8,29.98,ENE,72,6.0,7.0,40,0.00,,,0.00,425,Wunderground v.1.15,2013-05-06 20:56:00,
2013-05-06 16:06:00,63.5,37.4,29.98,ENE,68,6.0,6.0,38,0.00,,,0.00,434,Wunderground v.1.15,2013-05-06 21:06:00,
2013-05-06 16:11:00,63.6,37.5,29.98,NNE,15,6.0,7.0,38,0.00,,,0.00,411,Wunderground v.1.15,2013-05-06 21:11:00,
2013-05-06 16:21:00,64.1,36.6,29.98,NE,52,5.0,8.0,36,0.00,,,0.00,471,Wunderground v.1.15,2013-05-06 21:21:00,
2013-05-06 16:26:00,64.1,36.6,29.98,ENE,61,6.0,8.0,36,0.00,,,0.00,422,Wunderground v.1.15,2013-05-06 21:26:00,
2013-05-06 16:36:00,64.3,36.0,29.97,NE,40,5.0,7.0,35,0.00,,,0.00,396,Wunderground v.1.15,2013-05-06 21:36:00,
2013-05-06 16:41:00,64.5,36.2,29.97,NNE,30,6.0,6.0,35,0.00,,,0.00,478,Wunderground v.1.15,2013-05-06 21:41:00,
2013-05-06 16:51:00,65.1,36.8,29.97,ENE,68,5.0,5.0,35,0.00,,,0.00,352,Wunderground v.1.15,2013-05-06 21:51:00,
2013-05-06 16:56:00,65.1,36.8,29.97,ENE,62,5.0,5.0,35,0.00,,,0.00,315,Wunderground v.1.15,2013-05-06 21:56:00,
2013-05-06 17:01:00,65.3,36.2,29.97,NE,43,4.0,6.0,34,0.00,,,0.00,311,Wunderground v.1.15,2013-05-06 22:01:00,
2013-05-06 17:11:00,65.2,35.4,29.97,NNE,29,4.0,6.0,33,0.00,,,0.00,329,Wunderground v.1.15,2013-05-06 22:11:00,
2013-05-06 17:21:00,64.7,34.9,29.97,NE,56,6.0,6.0,33,0.00,,,0.00,281,Wunderground v.1.15,2013-05-06 22:21:00,
2013-05-06 17:26:00,64.5,36.2,29.97,NNE,29,5.0,6.0,35,0.00,,,0.00,285,Wunderground v.1.15,2013-05-06 22:26:00,
2013-05-06 17:31:00,64.5,35.5,29.97,NE,48,6.0,8.0,34,0.00,,,0.00,255,Wunderground v.1.15,2013-05-06 22:31:00,
2013-05-06 17:41:00,63.9,35.7,29.97,NNE,33,5.0,7.0,35,0.00,,,0.00,197,Wunderground v.1.15,2013-05-06 22:41:00,
2013-05-06 17:46:00,63.6,36.8,29.97,NE,56,6.0,7.0,37,0.00,,,0.00,192,Wunderground v.1.15,2013-05-06 22:46:00,
2013-05-06 17:51:00,63.6,36.1,29.97,NNE,31,4.0,8.0,36,0.00,,,0.00,195,Wunderground v.1.15,2013-05-06 22:51:00,
2013-05-06 18:01:00,63.5,36.7,29.97,ENE,60,3.0,5.0,37,0.00,,,0.00,188,Wunderground v.1.15,2013-05-06 23:01:00,
2013-05-06 18:11:00,62.5,36.5,29.97,ENE,75,4.0,10.0,38,0.00,,,0.00,148,Wunderground v.1.15,2013-05-06 23:11:00,
2013-05-06 18:21:00,61.5,36.3,29.98,ENE,66,5.0,7.0,39,0.00,,,0.00,128,Wunderground v.1.15,2013-05-06 23:21:00,
2013-05-06 18:26:00,61.0,35.8,29.98,NE,53,5.0,7.0,39,0.00,,,0.00,120,Wunderground v.1.15,2013-05-06 23:26:00,
2013-05-06 18:31:00,60.8,35.7,29.98,NNE,31,3.0,3.0,39,0.00,,,0.00,116,Wunderground v.1.15,2013-05-06 23:31:00,
2013-05-06 18:41:00,60.5,36.0,29.98,ENE,60,2.0,2.0,40,0.00,,,0.00,104,Wunderground v.1.15,2013-05-06 23:41:00,
2013-05-06 18:51:00,59.8,34.8,29.98,NNE,33,3.0,3.0,39,0.00,,,0.00,86,Wunderground v.1.15,2013-05-06 23:51:00,
2013-05-06 18:56:00,59.4,35.1,29.98,NE,37,3.0,3.0,40,0.00,,,0.00,77,Wunderground v.1.15,2013-05-06 23:56:00,
2013-05-06 19:01:00,59.1,35.4,29.98,NE,39,3.0,3.0,41,0.00,,,0.00,67,Wunderground v.1.15,2013-05-07 00:01:00,
2013-05-06 19:11:00,58.8,35.1,29.98,NE,45,2.0,2.0,41,0.00,,,0.00,51,Wunderground v.1.15,2013-05-07 00:11:00,
2013-05-06 19:16:00,58.6,35.0,29.98,NE,53,2.0,8.0,41,0.00,,,0.00,42,Wunderground v.1.15,2013-05-07 00:16:00,
2013-05-06 19:21:00,58.4,34.8,29.99,NE,38,3.0,7.0,41,0.00,,,0.00,35,Wunderground v.1.15,2013-05-07 00:21:00,
2013-05-06 19:31:00,58.1,35.1,29.99,NNE,21,3.0,3.0,42,0.00,,,0.00,21,Wunderground v.1.15,2013-05-07 00:31:00,
2013-05-06 19:36:00,58.0,35.0,29.99,NNE,27,2.0,3.0,42,0.00,,,0.00,14,Wunderground v.1.15,2013-05-07 00:36:00,
2013-05-06 19:41:00,57.8,34.8,29.99,NE,48,3.0,3.0,42,0.00,,,0.00,11,Wunderground v.1.15,2013-05-07 00:41:00,
2013-05-06 19:51:00,57.4,34.5,29.99,NNE,22,4.0,5.0,42,0.00,,,0.00,0,Wunderground v.1.15,2013-05-07 00:51:00,
2013-05-06 20:01:00,57.1,35.4,29.99,ENE,58,1.0,1.0,44,0.00,,,0.00,0,Wunderground v.1.15,2013-05-07 01:01:00,
2013-05-06 20:06:00,56.9,35.2,29.99,NE,34,2.0,2.0,44,0.00,,,0.00,0,Wunderground v.1.15,2013-05-07 01:06:00,
2013-05-06 20:16:00,56.4,35.3,29.99,NE,46,2.0,2.0,45,0.00,,,0.00,0,Wunderground v.1.15,2013-05-07 01:16:00,
2013-05-06 20:21:00,56.2,35.1,29.99,NNE,29,1.0,4.0,45,0.00,,,0.00,0,Wunderground v.1.15,2013-05-07 01:21:00,
2013-05-06 20:31:00,55.9,35.4,29.99,NE,48,2.0,2.0,46,0.00,,,0.00,0,Wunderground v.1.15,2013-05-07 01:31:00,
2013-05-06 20:36:00,55.7,35.2,30.00,NE,48,0.0,2.0,46,0.00,,,0.00,0,Wunderground v.1.15,2013-05-07 01:36:00,
2013-05-06 20:41:00,55.5,35.6,30.00,NNE,22,1.0,1.0,47,0.00,,,0.00,0,Wunderground v.1.15,2013-05-07 01:41:00,
2013-05-06 20:51:00,55.2,35.8,30.00,NE,36,1.0,1.0,48,0.00,,,0.00,0,Wunderground v.1.15,2013-05-07 01:51:00,
2013-05-06 21:01:00,54.9,35.6,30.01,NNE,25,1.0,1.0,48,0.00,,,0.00,0,Wunderground v.1.15,2013-05-07 02:01:00,
2013-05-06 21:06:00,54.8,35.5,30.01,NE,42,1.0,5.0,48,0.00,,,0.00,0,Wunderground v.1.15,2013-05-07 02:06:00,
2013-05-06 21:16:00,54.6,35.3,30.01,NE,42,0.0,1.0,48,0.00,,,0.00,0,Wunderground v.1.15,2013-05-07 02:16:00,
2013-05-06 21:21:00,54.6,35.8,30.01,NE,36,0.0,0.0,49,0.00,,,0.00,0,Wunderground v.1.15,2013-05-07 02:21:00,
2013-05-06 21:31:00,54.4,36.1,30.01,NE,37,1.0,1.0,50,0.00,,,0.00,0,Wunderground v.1.15,2013-05-07 02:31:00,
2013-05-06 21:36:00,54.4,35.6,30.01,NE,41,0.0,1.0,49,0.00,,,0.00,0,Wunderground v.1.15,2013-05-07 02:36:00,
2013-05-06 21:46:00,54.2,35.9,30.01,NE,42,0.0,0.0,50,0.00,,,0.00,0,Wunderground v.1.15,2013-05-07 02:46:00,
2013-05-06 21:51:00,54.0,35.8,30.01,NE,44,0.0,0.0,50,0.00,,,0.00,0,Wunderground v.1.15,2013-05-07 02:51:00,
2013-05-06 21:56:00,53.9,36.2,30.01,NE,43,0.0,0.0,51,0.00,,,0.00,0,Wunderground v.1.15,2013-05-07 02:56:00,
2013-05-06 22:01:00,53.8,36.1,30.01,NE,43,0.0,0.0,51,0.00,,,0.00,0,Wunderground v.1.15,2013-05-07 03:01:00,
2013-05-06 22:11:00,53.4,36.2,30.01,NE,44,0.0,0.0,52,0.00,,,0.00,0,Wunderground v.1.15,2013-05-07 03:11:00,
2013-05-06 22:16:00,53.2,36.0,30.01,NE,40,0.0,0.0,52,0.00,,,0.00,0,Wunderground v.1.15,2013-05-07 03:16:00,
2013-05-06 22:21:00,53.0,36.3,30.01,NE,43,0.0,0.0,53,0.00,,,0.00,0,Wunderground v.1.15,2013-05-07 03:21:00,
2013-05-06 22:31:00,52.6,36.4,30.01,NE,45,0.0,0.0,54,0.00,,,0.00,0,Wunderground v.1.15,2013-05-07 03:31:00,
2013-05-06 22:36:00,52.4,36.2,30.01,NE,46,0.0,0.0,54,0.00,,,0.00,0,Wunderground v.1.15,2013-05-07 03:36:00,
2013-05-06 22:46:00,52.1,35.5,30.01,ENE,65,0.0,0.0,53,0.00,,,0.00,0,Wunderground v.1.15,2013-05-07 03:46:00,
2013-05-06 22:51:00,52.1,35.9,30.01,ENE,66,0.0,0.0,54,0.00,,,0.00,0,Wunderground v.1.15,2013-05-07 03:51:00,
2013-05-06 22:56:00,52.0,35.9,30.01,ENE,63,0.0,0.0,54,0.00,,,0.00,0,Wunderground v.1.15,2013-05-07 03:56:00,
2013-05-06 23:01:00,51.9,35.8,30.01,ENE,64,0.0,0.0,54,0.00,,,0.00,0,Wunderground v.1.15,2013-05-07 04:01:00,
2013-05-06 23:06:00,51.7,36.0,30.01,ENE,62,0.0,0.0,55,0.00,,,0.00,0,Wunderground v.1.15,2013-05-07 04:06:00,
2013-05-06 23:11:00,51.5,36.3,30.01,ENE,66,0.0,0.0,56,0.00,,,0.00,0,Wunderground v.1.15,2013-05-07 04:11:00,
2013-05-06 23:16:00,51.3,36.1,30.01,ENE,62,0.0,0.0,56,0.00,,,0.00,0,Wunderground v.1.15,2013-05-07 04:16:00,
2013-05-06 23:21:00,51.1,36.4,30.01,ENE,65,0.0,0.0,57,0.00,,,0.00,0,Wunderground v.1.15,2013-05-07 04:21:00,
2013-05-06 23:31:00,50.7,36.5,30.01,ENE,66,0.0,0.0,58,0.00,,,0.00,0,Wunderground v.1.15,2013-05-07 04:31:00,
2013-05-06 23:36:00,50.6,36.4,30.01,ENE,62,0.0,0.0,58,0.00,,,0.00,0,Wunderground v.1.15,2013-05-07 04:36:00,
2013-05-06 23:41:00,50.5,36.3,30.01,ENE,68,0.0,0.0,58,0.00,,,0.00,0,Wunderground v.1.15,2013-05-07 04:41:00,
2013-05-06 23:51:00,50.2,36.4,30.01,ENE,66,0.0,0.0,59,0.00,,,0.00,0,Wunderground v.1.15,2013-05-07 04:51:00,